Le nostre stazioni meteo in Italia

Pubblicità
Il mio iltempo24.it
Lentran, Gran Bretagna (99125): Temperatura & dewpoint: 17.05.2017 15:00:00 - 23.05.2017 15:00:00 (BST)Lentran, Gran Bretagna (99125): Temperatura 5cm: 17.05.2017 15:00:00 - 23.05.2017 15:00:00 (BST)Lentran, Gran Bretagna (99125): velocità del vento: 17.05.2017 15:00:00 - 23.05.2017 15:00:00 (BST)Lentran, Gran Bretagna (99125): direzione del vento: 17.05.2017 15:00:00 - 23.05.2017 15:00:00 (BST)Lentran, Gran Bretagna (99125): visibility: 17.05.2017 15:00:00 - 23.05.2017 15:00:00 (BST)Lentran, Gran Bretagna (99125): precipitazioni: 17.05.2017 15:00:00 - 23.05.2017 15:00:00 (BST)
Data & Tempo tt [°C] td [°C] tt 5cm [°C] ff [km/h] ff [kn] dd vv [km] rr [mm]
23.05.2017 15:00:00 14,6 7,1 - - - - - 0,0
23.05.2017 14:00:00 14,7 7,0 - - - - - 0,0
23.05.2017 13:00:00 14,9 7,3 - - - - - 0,0
23.05.2017 12:00:00 14,0 7,8 - - - - - 0,0
23.05.2017 11:00:00 12,4 8,1 - - - - - 0,0
23.05.2017 10:00:00 11,5 7,6 12,2 - - N 3,3 0,0
23.05.2017 09:00:00 10,9 7,4 - - - - - 0,0
23.05.2017 08:00:00 11,8 9,0 - - - - - 0,0
23.05.2017 07:00:00 10,0 7,8 - - - - - 0,0
23.05.2017 06:00:00 7,2 6,5 - - - - - 0,0
23.05.2017 05:00:00 8,3 6,9 - - - - - 0,0
23.05.2017 04:00:00 6,7 6,0 - - - - - 0,0
23.05.2017 03:00:00 6,6 5,8 - - - - - 0,0
23.05.2017 02:00:00 8,0 6,5 - - - - - 0,0
23.05.2017 01:00:00 7,4 6,3 - - - - - 0,2
23.05.2017 00:00:00 7,0 6,3 - - - - - 0,0
22.05.2017 23:00:00 8,2 7,5 - - - - - 0,0
22.05.2017 22:00:00 8,2 7,4 - - - - - 2,0
22.05.2017 21:00:00 8,4 7,4 - - - - - 1,8
22.05.2017 20:00:00 9,9 8,1 - - - - - 0,8
22.05.2017 19:00:00 12,2 11,3 - - - - - 1,4
22.05.2017 18:00:00 12,2 11,1 - - - - - 3,2
22.05.2017 17:00:00 12,8 11,2 - - - - - 0,4
22.05.2017 16:00:00 14,7 8,9 - - - - - 0,0
22.05.2017 15:00:00 15,8 7,4 - - - - - 0,0
22.05.2017 14:00:00 17,1 6,7 - - - - - 0,0
22.05.2017 13:00:00 15,9 6,6 - - - - - 0,0
22.05.2017 12:00:00 14,8 7,0 - - - - - 0,0
22.05.2017 11:00:00 14,7 7,4 - - - - - 0,0
22.05.2017 10:00:00 13,3 9,5 - - - - 10 0,0
22.05.2017 09:00:00 12,0 9,6 - - - - - 0,0
22.05.2017 08:00:00 11,2 8,1 - - - - - 0,0
22.05.2017 07:00:00 10,1 8,6 - - - - - 0,0
22.05.2017 06:00:00 10,5 7,4 - - - - - 0,0
22.05.2017 05:00:00 9,2 7,2 - - - - - 0,0
22.05.2017 04:00:00 8,1 6,8 - - - - - 0,0
22.05.2017 03:00:00 9,0 6,3 - - - - - 0,0
22.05.2017 02:00:00 9,5 6,2 - - - - - 0,0
22.05.2017 01:00:00 11,3 6,6 - - - - - 0,0
22.05.2017 00:00:00 10,9 6,1 - - - - - 0,0
21.05.2017 23:00:00 10,9 6,0 - - - - - 0,0
21.05.2017 22:00:00 11,7 8,1 - - - - - 0,0
21.05.2017 21:00:00 12,8 7,8 - - - - - 0,0
21.05.2017 20:00:00 14,6 7,4 - - - - - 0,0
21.05.2017 19:00:00 15,0 7,5 - - - - - 0,0
21.05.2017 18:00:00 16,1 7,8 - - - - - 0,0
21.05.2017 17:00:00 16,2 9,1 - - - - - 0,0
21.05.2017 16:00:00 14,4 8,6 - - - - - 0,0
21.05.2017 15:00:00 14,0 8,2 - - - - - 0,0
21.05.2017 14:00:00 13,3 7,3 - - - - - 0,0
21.05.2017 13:00:00 13,2 6,9 - - - - - 0,0
21.05.2017 12:00:00 13,0 7,1 - - - - - 0,0
21.05.2017 11:00:00 12,5 5,8 - - - - - 0,0
21.05.2017 10:00:00 11,9 6,2 12,0 148 80 N 2,5 0,0
21.05.2017 09:00:00 11,4 7,1 - - - - - 0,0
21.05.2017 08:00:00 10,4 7,5 - - - - - 0,0
21.05.2017 07:00:00 8,8 7,0 - - - - - 0,0
21.05.2017 06:00:00 6,2 5,4 - - - - - 0,0
21.05.2017 05:00:00 7,0 4,4 - - - - - 0,0
21.05.2017 04:00:00 7,4 5,0 - - - - - 0,0
21.05.2017 03:00:00 6,9 5,0 - - - - - 0,0
21.05.2017 02:00:00 7,6 5,7 - - - - - 0,0
21.05.2017 01:00:00 7,2 5,3 - - - - - 0,0
21.05.2017 00:00:00 6,8 5,4 - - - - - 0,0
20.05.2017 23:00:00 7,2 5,3 - - - - - 0,0
20.05.2017 22:00:00 7,5 5,3 - - - - - 0,0
20.05.2017 21:00:00 8,4 6,4 - - - - - 0,0
20.05.2017 20:00:00 9,4 7,6 - - - - - 0,0
20.05.2017 19:00:00 9,4 8,5 - - - - - 0,0
20.05.2017 18:00:00 8,9 7,8 - - - - - 0,8
20.05.2017 17:00:00 8,5 7,5 - - - - - 2,6
20.05.2017 16:00:00 8,9 8,5 - - - - - 2,4
20.05.2017 15:00:00 8,7 7,5 - - - - - 1,0
20.05.2017 14:00:00 9,4 8,0 - - - - - 0,6
20.05.2017 13:00:00 9,4 7,8 - - - - - 0,0
20.05.2017 12:00:00 9,5 7,9 - - - - - 0,0
20.05.2017 11:00:00 9,1 8,0 - - - - - 0,4
20.05.2017 10:00:00 8,6 7,9 9,7 - - N 18 0,4
20.05.2017 09:00:00 8,4 8,0 - - - - - 0,4
20.05.2017 08:00:00 8,0 7,9 - - - - - 0,4
20.05.2017 07:00:00 7,7 7,7 - - - - - 1,2
20.05.2017 06:00:00 7,3 7,3 - - - - - 1,8
20.05.2017 05:00:00 7,0 6,9 - - - - - 1,0
20.05.2017 04:00:00 6,9 6,7 - - - - - 0,8
20.05.2017 03:00:00 7,3 6,9 - - - - - 0,2
20.05.2017 02:00:00 7,9 7,1 - - - - - 0,2
20.05.2017 01:00:00 8,1 7,2 - - - - - 0,0
20.05.2017 00:00:00 8,7 6,5 - - - - - 0,0
19.05.2017 23:00:00 9,0 6,7 - - - - - 0,0
19.05.2017 22:00:00 9,7 6,6 - - - - - 0,0
19.05.2017 21:00:00 10,7 6,3 - - - - - 0,0
19.05.2017 20:00:00 12,4 5,8 - - - - - 0,0
19.05.2017 19:00:00 14,0 6,1 - - - - - 0,0
19.05.2017 18:00:00 14,2 9,1 - - - - - 0,0
19.05.2017 17:00:00 13,4 9,1 - - - - - 0,0
19.05.2017 16:00:00 13,5 8,4 - - - - - 0,0
19.05.2017 15:00:00 14,0 8,0 - - - - - -
19.05.2017 14:00:00 13,4 6,2 - - - - - 0,0
19.05.2017 13:00:00 13,9 7,0 - - - - - 0,0
19.05.2017 12:00:00 13,2 5,3 - - - - - 0,0
19.05.2017 11:00:00 12,7 6,4 - - - - - 0,0
19.05.2017 10:00:00 10,0 5,3 10,6 55 30 N 0,7 0,0
19.05.2017 09:00:00 8,9 5,7 - - - - - 0,0
19.05.2017 08:00:00 7,5 5,8 - - - - - 0,0
19.05.2017 07:00:00 5,1 4,7 - - - - - 0,0
19.05.2017 06:00:00 3,6 3,3 - - - - - 0,0
19.05.2017 05:00:00 3,1 2,3 - - - - - 0,0
19.05.2017 04:00:00 3,4 2,6 - - - - - 0,0
19.05.2017 03:00:00 3,9 2,7 - - - - - 0,0
19.05.2017 02:00:00 4,8 2,7 - - - - - 0,0
19.05.2017 01:00:00 5,2 2,5 - - - - - 0,0
19.05.2017 00:00:00 5,7 3,4 - - - - - 0,0
18.05.2017 23:00:00 6,2 3,7 - - - - - 0,0
18.05.2017 22:00:00 7,6 4,1 - - - - - 0,0
18.05.2017 21:00:00 11,1 4,2 - - - - - 0,0
18.05.2017 20:00:00 13,7 5,1 - - - - - 0,0
18.05.2017 19:00:00 14,7 5,7 - - - - - 0,0
18.05.2017 18:00:00 13,8 4,9 - - - - - 0,0
18.05.2017 17:00:00 13,8 4,3 - - - - - 0,0
18.05.2017 16:00:00 15,0 6,3 - - - - - 0,0
18.05.2017 15:00:00 16,8 5,5 - - - - - 0,0
18.05.2017 14:00:00 15,9 3,5 - - - - - 0,0
18.05.2017 13:00:00 15,6 4,4 - - - - - 0,0
18.05.2017 12:00:00 14,8 5,2 - - - - - 0,0
18.05.2017 11:00:00 13,1 3,4 - - - - - 0,0
18.05.2017 10:00:00 11,5 5,3 11,5 50 27 N 1,7 0,0
18.05.2017 09:00:00 10,5 5,9 - - - - - 0,0
18.05.2017 08:00:00 7,8 4,9 - - - - - 0,0
18.05.2017 07:00:00 5,7 4,7 - - - - - 0,0
18.05.2017 06:00:00 3,8 3,2 - - - - - 0,0
18.05.2017 05:00:00 4,2 3,1 - - - - - 0,0
18.05.2017 04:00:00 4,7 3,5 - - - - - 0,0
18.05.2017 03:00:00 5,7 3,9 - - - - - 0,0
18.05.2017 02:00:00 5,8 3,4 - - - - - 0,0
18.05.2017 01:00:00 7,8 3,9 - - - - - 0,0
18.05.2017 00:00:00 8,5 5,0 - - - - - 0,0
17.05.2017 23:00:00 8,5 4,7 - - - - - 0,0
17.05.2017 22:00:00 10,4 5,5 - - - - - 0,0
17.05.2017 21:00:00 11,1 5,9 - - - - - 0,0
17.05.2017 20:00:00 13,0 5,1 - - - - - 0,0
17.05.2017 19:00:00 14,5 4,7 - - - - - 0,0
17.05.2017 18:00:00 16,0 5,3 - - - - - 0,0
17.05.2017 17:00:00 13,4 4,0 - - - - - 0,0
17.05.2017 16:00:00 13,8 5,0 - - - - - 0,0
17.05.2017 15:00:00 17,9 5,1 - - - - - 0,0

tt = Temperatura
td = dewpoint
tt 5cm = Temperatura 5cm
ff = velocità del vento
dd = direzione del vento
vv = visibility
rr = precipitazioni

Stazioni seguenti

WeatherPro
AMSI
MeteoEarth